Time,TemperatureF,DewpointF,PressureIn,WindDirection,WindDirectionDegrees,WindSpeedMPH,WindSpeedGustMPH,Humidity,HourlyPrecipIn,Conditions,Clouds,dailyrainin,SoftwareType,DateUTC
2013-06-11 00:03:00,65.0,-99.9,-100.00,North,-999,-999.0,-999.0,-999,0.00,,,0.00,,2013-06-11 04:03:00,
2013-06-11 00:13:00,65.0,-99.9,-100.00,North,-999,-999.0,-999.0,-999,0.00,,,0.00,,2013-06-11 04:13:00,
2013-06-11 00:34:00,65.0,-99.9,-100.00,North,-999,-999.0,-999.0,-999,0.00,,,0.00,,2013-06-11 04:34:00,
2013-06-11 01:02:00,65.0,-99.9,-100.00,North,-999,-999.0,-999.0,-999,0.00,,,0.00,,2013-06-11 05:02:00,
2013-06-11 01:12:00,65.0,-99.9,-100.00,North,-999,-999.0,-999.0,-999,0.00,,,0.00,,2013-06-11 05:12:00,
2013-06-11 01:32:00,63.0,-99.9,-100.00,North,-999,-999.0,-999.0,-999,0.01,,,0.01,,2013-06-11 05:32:00,
2013-06-11 01:42:00,63.0,-99.9,-100.00,North,-999,-999.0,-999.0,-999,0.01,,,0.01,,2013-06-11 05:42:00,
2013-06-11 01:53:00,63.0,-99.9,-100.00,North,-999,-999.0,-999.0,-999,0.01,,,0.01,,2013-06-11 05:53:00,
2013-06-11 02:02:00,63.0,-99.9,-100.00,North,-999,-999.0,-999.0,-999,0.01,,,0.01,,2013-06-11 06:02:00,
2013-06-11 02:12:00,63.0,-99.9,-100.00,North,-999,-999.0,-999.0,-999,0.01,,,0.01,,2013-06-11 06:12:00,
2013-06-11 02:32:00,63.0,-99.9,-100.00,North,-999,-999.0,-999.0,-999,0.01,,,0.02,,2013-06-11 06:32:00,
2013-06-11 03:02:00,63.0,-99.9,-100.00,North,-999,-999.0,-999.0,-999,0.01,,,0.02,,2013-06-11 07:02:00,
2013-06-11 03:13:00,63.0,-99.9,-100.00,North,-999,-999.0,-999.0,-999,0.01,,,0.02,,2013-06-11 07:13:00,
2013-06-11 03:32:00,63.0,-99.9,-100.00,North,-999,-999.0,-999.0,-999,0.00,,,0.02,,2013-06-11 07:32:00,
2013-06-11 03:42:00,63.0,-99.9,-100.00,North,-999,-999.0,-999.0,-999,0.00,,,0.02,,2013-06-11 07:42:00,
2013-06-11 03:52:00,63.0,-99.9,-100.00,North,-999,-999.0,-999.0,-999,0.00,,,0.02,,2013-06-11 07:52:00,
2013-06-11 04:03:00,63.0,-99.9,-100.00,North,-999,-999.0,-999.0,-999,0.00,,,0.02,,2013-06-11 08:03:00,
2013-06-11 04:12:00,63.0,-99.9,-100.00,North,-999,-999.0,-999.0,-999,0.00,,,0.02,,2013-06-11 08:12:00,
2013-06-11 04:32:00,63.0,-99.9,-100.00,North,-999,-999.0,-999.0,-999,0.02,,,0.04,,2013-06-11 08:32:00,
2013-06-11 05:02:00,63.0,-99.9,-100.00,North,-999,-999.0,-999.0,-999,0.02,,,0.04,,2013-06-11 09:02:00,
2013-06-11 05:12:00,63.0,-99.9,-100.00,North,-999,-999.0,-999.0,-999,0.02,,,0.04,,2013-06-11 09:12:00,
2013-06-11 05:33:00,63.0,-99.9,-100.00,North,-999,-999.0,-999.0,-999,0.11,,,0.15,,2013-06-11 09:33:00,
2013-06-11 06:12:00,63.0,-99.9,-100.00,North,-999,-999.0,-999.0,-999,0.11,,,0.15,,2013-06-11 10:12:00,
2013-06-11 06:33:00,63.0,-99.9,-100.00,North,-999,-999.0,-999.0,-999,0.06,,,0.21,,2013-06-11 10:33:00,
2013-06-11 07:03:00,63.0,-99.9,-100.00,North,-999,-999.0,-999.0,-999,0.06,,,0.21,,2013-06-11 11:03:00,
2013-06-11 07:12:00,63.0,-99.9,-100.00,North,-999,-999.0,-999.0,-999,0.06,,,0.21,,2013-06-11 11:12:00,
2013-06-11 07:32:00,63.0,-99.9,-100.00,North,-999,-999.0,-999.0,-999,0.04,,,0.25,,2013-06-11 11:32:00,
2013-06-11 07:42:00,63.0,-99.9,-100.00,North,-999,-999.0,-999.0,-999,0.04,,,0.25,,2013-06-11 11:42:00,
2013-06-11 07:52:00,63.0,-99.9,-100.00,North,-999,-999.0,-999.0,-999,0.04,,,0.25,,2013-06-11 11:52:00,
2013-06-11 08:02:00,63.0,-99.9,-100.00,North,-999,-999.0,-999.0,-999,0.04,,,0.25,,2013-06-11 12:02:00,
2013-06-11 08:12:00,63.0,-99.9,-100.00,North,-999,-999.0,-999.0,-999,0.04,,,0.25,,2013-06-11 12:12:00,
2013-06-11 08:32:00,64.0,-99.9,-100.00,North,-999,-999.0,-999.0,-999,0.04,,,0.29,,2013-06-11 12:32:00,
2013-06-11 09:33:00,65.0,-99.9,-100.00,North,-999,-999.0,-999.0,-999,0.06,,,0.35,,2013-06-11 13:33:00,
2013-06-11 10:32:00,65.0,-99.9,-100.00,North,-999,-999.0,-999.0,-999,0.03,,,0.40,,2013-06-11 14:32:00,
2013-06-11 11:33:00,66.0,-99.9,-100.00,North,-999,-999.0,-999.0,-999,0.06,,,0.46,,2013-06-11 15:33:00,
2013-06-11 12:33:00,66.0,-99.9,-100.00,North,-999,-999.0,-999.0,-999,0.08,,,0.55,,2013-06-11 16:33:00,
2013-06-11 13:32:00,67.0,-99.9,-100.00,North,-999,-999.0,-999.0,-999,0.06,,,0.63,,2013-06-11 17:32:00,
2013-06-11 14:33:00,67.0,-99.9,-100.00,North,-999,-999.0,-999.0,-999,-99.99,,,0.72,,2013-06-11 18:33:00,
2013-06-11 15:13:00,67.0,-99.9,-100.00,North,-999,-999.0,-999.0,-999,-99.99,,,0.72,,2013-06-11 19:13:00,
2013-06-11 15:33:00,69.0,-99.9,-100.00,North,-999,-999.0,-999.0,-999,0.00,,,0.72,,2013-06-11 19:33:00,
2013-06-11 16:32:00,69.0,-99.9,-100.00,North,-999,-999.0,-999.0,-999,-99.99,,,0.72,,2013-06-11 20:32:00,
2013-06-11 17:43:00,67.0,-99.9,-100.00,North,-999,-999.0,-999.0,-999,-99.99,,,0.74,,2013-06-11 21:43:00,
2013-06-11 17:53:00,67.0,-99.9,-100.00,North,-999,-999.0,-999.0,-999,-99.99,,,0.74,,2013-06-11 21:53:00,
2013-06-11 18:03:00,67.0,-99.9,-100.00,North,-999,-999.0,-999.0,-999,-99.99,,,0.74,,2013-06-11 22:03:00,
2013-06-11 18:13:00,67.0,-99.9,-100.00,North,-999,-999.0,-999.0,-999,-99.99,,,0.74,,2013-06-11 22:13:00,
2013-06-11 18:33:00,67.0,-99.9,-100.00,North,-999,-999.0,-999.0,-999,0.04,,,0.78,,2013-06-11 22:33:00,
2013-06-11 18:42:00,67.0,-99.9,-100.00,North,-999,-999.0,-999.0,-999,0.04,,,0.78,,2013-06-11 22:42:00,
2013-06-11 18:53:00,67.0,-99.9,-100.00,North,-999,-999.0,-999.0,-999,0.04,,,0.78,,2013-06-11 22:53:00,
2013-06-11 19:03:00,67.0,-99.9,-100.00,North,-999,-999.0,-999.0,-999,0.04,,,0.78,,2013-06-11 23:03:00,
2013-06-11 19:12:00,67.0,-99.9,-100.00,North,-999,-999.0,-999.0,-999,0.04,,,0.78,,2013-06-11 23:12:00,
2013-06-11 19:32:00,66.0,-99.9,-100.00,North,-999,-999.0,-999.0,-999,-99.99,,,0.78,,2013-06-11 23:32:00,
2013-06-11 19:43:00,66.0,-99.9,-100.00,North,-999,-999.0,-999.0,-999,-99.99,,,0.78,,2013-06-11 23:43:00,
2013-06-11 19:52:00,66.0,-99.9,-100.00,North,-999,-999.0,-999.0,-999,-99.99,,,0.78,,2013-06-11 23:52:00,
2013-06-11 20:02:00,66.0,-99.9,-100.00,North,-999,-999.0,-999.0,-999,-99.99,,,0.78,,2013-06-12 00:02:00,
2013-06-11 20:12:00,66.0,-99.9,-100.00,North,-999,-999.0,-999.0,-999,-99.99,,,0.78,,2013-06-12 00:12:00,
2013-06-11 20:42:00,66.0,-99.9,-100.00,North,-999,-999.0,-999.0,-999,-99.99,,,0.86,,2013-06-12 00:42:00,
2013-06-11 20:52:00,66.0,-99.9,-100.00,North,-999,-999.0,-999.0,-999,-99.99,,,0.86,,2013-06-12 00:52:00,
2013-06-11 21:42:00,65.0,-99.9,-100.00,North,-999,-999.0,-999.0,-999,-99.99,,,0.90,,2013-06-12 01:42:00,
2013-06-11 21:52:00,65.0,-99.9,-100.00,North,-999,-999.0,-999.0,-999,-99.99,,,0.90,,2013-06-12 01:52:00,
2013-06-11 22:02:00,65.0,-99.9,-100.00,North,-999,-999.0,-999.0,-999,-99.99,,,0.90,,2013-06-12 02:02:00,
2013-06-11 22:12:00,65.0,-99.9,-100.00,North,-999,-999.0,-999.0,-999,-99.99,,,0.90,,2013-06-12 02:12:00,
2013-06-11 22:32:00,64.0,-99.9,-100.00,North,-999,-999.0,-999.0,-999,-99.99,,,0.94,,2013-06-12 02:32:00,
2013-06-11 22:42:00,64.0,-99.9,-100.00,North,-999,-999.0,-999.0,-999,-99.99,,,0.94,,2013-06-12 02:42:00,
2013-06-11 22:52:00,64.0,-99.9,-100.00,North,-999,-999.0,-999.0,-999,-99.99,,,0.94,,2013-06-12 02:52:00,
2013-06-11 23:02:00,64.0,-99.9,-100.00,North,-999,-999.0,-999.0,-999,-99.99,,,0.94,,2013-06-12 03:02:00,
2013-06-11 23:12:00,64.0,-99.9,-100.00,North,-999,-999.0,-999.0,-999,-99.99,,,0.94,,2013-06-12 03:12:00,